Location: *
(40.7873°S, 98.7174°E)
Time: 09:40:37
(UTC+00:00)

CZ-2C R/B - Pass Details

Date: 24 May 2022
Orbit: 704 x 907 km, 98.1° (Epoch: 04 July)

Event Time Altitude Azimuth Distance (km) Brightness Sun altitude
Rises 11:00:09 0° 173° (S) 3,134 5.9 -9.5°
Reaches altitude 10° 11:02:28 10° 178° (S) 2,210 5.2 -9.9°
Maximum altitude 11:07:07 50° 252° (WSW) 918 3.8 -10.7°
Drops below altitude 10° 11:11:49 10° 327° (NNW) 2,234 6.2 -11.6°
Sets 11:14:10 0° 332° (NNW) 3,171 6.9 -12.0°
